Regional Weather Roundup
Issued by NWS

Home | Current Version | Previous Version | Text Only | Print | Product List | Glossary Off
Versions: 1 2 3 4 5 6 7 8 9 10 11 12 13 14 15 16 17 18 19 20 21 22 23 24 25 26 27 28 29 30 31 32 33 34 35 36 37 38 39 40 41 42 43 44 45 46 47 48 49 50

000
ASUS43 KMKX 212121
RWRWI

WISCONSIN REGIONAL WEATHER ROUNDUP
NATIONAL WEATHER SERVICE MILWAUKEE/SULLIVAN WI
400 PM CDT THU AUG 21 2014

NOTE: "FAIR" INDICATES FEW OR NO CLOUDS BELOW 12,000 FEET WITH NO
SIGNIFICANT WEATHER AND/OR OBSTRUCTIONS TO VISIBILITY.

WIZ001-002-006>008-014>016-023>028-212200-
NORTHWEST WISCONSIN

CITY           SKY/WX    TMP DP  RH WIND       PRES   REMARKS
SUPERIOR ARPT  CLOUDY    62  61  94 E16       29.88R
ASHLAND        CLOUDY    67  64  90 N7        29.90S
HAYWARD        PTSUNNY   74  68  81 E8        29.87F
SIREN          CLOUDY    74  69  83 SE3       29.84S
RICE LAKE      CLOUDY    75  68  79 SE9       29.86S
LADYSMITH      CLOUDY    77  68  74 SE10      29.89S
EAU CLAIRE     CLOUDY    76  70  82 SE12      29.84R
MENOMONIE      CLOUDY    76  70  80 E8        29.83S
NEW RICHMOND   CLOUDY    73  70  89 E8        29.82S
OSCEOLA        CLOUDY    74  72  93 E8        29.84R
$$

WIZ003>005-009-010-017-018-212200-
NORTH CENTRAL WISCONSIN

CITY           SKY/WX    TMP DP  RH WIND       PRES   REMARKS
WOODRUFF       CLOUDY    72  65  78 SE7       29.93S
RHINELANDER    CLOUDY    67  63  87 SE10      29.95R
EAGLE RIVER    CLOUDY    69  64  83 SE6       29.94S
LAND O LAKES   CLOUDY    69  64  83 S7        29.96S
PHILLIPS       CLOUDY    70  66  85 SE8       29.90F
TOMAHAWK       CLOUDY    69  64  83 SE7       29.94R
MEDFORD        CLOUDY    69  67  92 E9        29.91S
MERRILL        CLOUDY    67  65  94 SE9       29.94R
$$

WIZ029-030-035-036-043>047-212200-
CENTRAL WISCONSIN

CITY           SKY/WX    TMP DP  RH WIND       PRES   REMARKS
WAUSAU         CLOUDY    68  66  93 SE9       29.92S
MOSINEE        CLOUDY    70  70 100 E7        29.93S
MARSHFIELD     CLOUDY    78  68  71 SE7       29.90R HX  80
STEVENS POINT  CLOUDY    71  66  86 E9        29.91F
WAUPACA        CLOUDY    75  71  85 NE6       29.91S
WAUTOMA        PTSUNNY   78  69  73 VRB5      29.90S HX  80
WISC RAPIDS    CLOUDY    78  69  73 S6        29.91R HX  80
CAMP DOUGLAS   MOSUNNY   77  75  94 S8        29.89R
$$

WIZ011>013-019>022-031-037>040-048>050-212200-
NORTHEAST WISCONSIN

CITY           SKY/WX    TMP DP  RH WIND       PRES   REMARKS
ANTIGO         CLOUDY    65  64  97 SE12      29.96S FOG
STURGEON BAY   CLOUDY    68  61  77 E7        29.96R
GREEN BAY      CLOUDY    68  64  87 SE6       29.94R
MANITOWOC      CLOUDY    66  64  94 SE7       29.94S
APPLETON       PTSUNNY   73  68  83 E6        29.93F
CLINTONVILLE   CLOUDY    70  64  83 SE7       29.93S
OSHKOSH        CLOUDY    72  68  87 E9        29.91S
$$

WIZ032>034-041-042-053>061-212200-
SOUTHWEST WISCONSIN

CITY           SKY/WX    TMP DP  RH WIND       PRES   REMARKS
LA CROSSE      MOSUNNY   82  71  69 S14       29.83S HX  86
SPARTA         CLOUDY    78  68  71 S6        29.87S HX  80
VIROQUA        MOCLDY    78  74  86 S10       29.88S HX  81
BOSCOBEL       PTSUNNY   82  72  71 VRB6      29.85F HX  87
PRAIRIE DU CHI PTSUNNY   79  71  76 SE7       29.84S HX  81
PLATTEVILLE    FAIR      76  73  88 SE10      29.89S
$$

WIZ056-057-062-063-064-067-068-212200-
SOUTH CENTRAL WISCONSIN

CITY           SKY/WX    TMP DP  RH WIND       PRES   REMARKS
BARABOO/DELLS  CLOUDY    75  69  80 S9        29.89F
LONE ROCK      CLOUDY    82  73  74 E8        29.87F HX  87
WATERTOWN      PTSUNNY   75  71  89 S8        29.91S
MADISON        CLOUDY    77  71  82 S12       29.89F
MIDDLETON      CLOUDY    78  74  88 S9        29.90F
MONROE         CLOUDY    75  72  88 S13       29.90F
JANESVILLE     PTSUNNY   75  72  88 S12       29.91F
$$

WIZ051-052-058>065-066-070>072-212200-
SOUTHEAST WISCONSIN

CITY           SKY/WX    TMP DP  RH WIND       PRES   REMARKS
MILWAUKEE      CLOUDY    73  70  90 SE9       29.92F
WAUKESHA       CLOUDY    72  70  94 SE8       29.93F
MILWAUKEE/TIMM PTSUNNY   73  66  78 S8        29.94F
RACINE         LGT RAIN  75  71  87 S8        29.95F
BURLINGTON     CLOUDY    73  71  94 SE6       29.92F
KENOSHA        CLOUDY    74  72  93 SE7       29.93F
FOND DU LAC    PTSUNNY   77  69  76 MISG      29.90F
SHEBOYGAN      CLOUDY    70  67  90 E6        29.92S
WEST BEND      PTSUNNY   72  68  88 S6        29.91F
JUNEAU         PTSUNNY   75  45  33 S12       29.93R
$$

LSZ147-162-212200-
LAKE SUPERIOR

STATION/POSITION TIME  TEMP    WIND        PRES    WAVE
                       AIR SEA DIR/SP/G            HT/PER
                 (UTC) (F)     (DEG/KT/KT) (MB)    (FT/S)
W MID LAKE BUOY  2050   60 59   60/ 12/ 14 1013.0F   2/ 3
PORT WING        2000   65      30/ 14/ 17 1012.2S
SAXON HARBOR     2000   67      50/  3/  7 1012.2
$$

LMZ867-665-643>646-212200-
LAKE MICHIGAN

STATION/POSITION TIME  TEMP    WIND        PRES    WAVE
                       AIR SEA DIR/SP/G            HT/PER
                 (UTC) (F)     (DEG/KT/KT) (MB)    (FT/S)
N MID LAKE BUOY  2050   64 65   90/  6/  8 1014.5F   0
NORTHPORT PIER   2000   66     120/  4/  5 1014.9S
SISTER BAY       2041   71     120/  9/ 11   N/A
KEWAUNEE LAKESHO 2100   65     120/  3/  5 1013.3F
SHEBOYGAN LAKESH 2100   67 68  100/  2/  2 1013.6R
ATWATER BUOY     2100   70     160/ 14/ 16 1014.6F
MILWAUKEE LAKESH 2100   70     150/ 11/ 12   N/A
S MID LAKE BUOY  2050   69 68  170/  8/ 10 1014.0R   1
KENOSHA   LAKESH 2100   72     170/ 12/ 12 1012.9F
$$

TC  - TEMPERATURE IN CELSIUS
VSB - VISIBILITY IN STATUTE MILES
WCI - WIND CHILL INDEX
HX  - HEAT INDEX



USA.gov is the U.S. government's official web portal to all federal, state and local government web resources and services.